Weather observations for the past three days for
Big Piney - Marbleton Airport
Metric (Imperial)
Date Time (mdt) Wind (kph) Vis. (km) Weather Sky Cond. Temperature (ºC) Relative Humidity Wind Chill (°C) Heat Index (°C) Pressure Precipitation (cm)
Air Dwpt 6 hour altimeter (cm) sea level (mb) 1 hr 3 hr 6 hr
Max. Min.
15 16:53 W 26 G 44 16.09 Mostly Cloudy BKN100 29.4 5.6 22% 28 76.81 1012.5
15 15:53 NW 26 G 43 16.09 A Few Clouds FEW085 28.3 6.1 24% 27 76.86 1013.2
15 14:53 W 24 16.09 Mostly Cloudy SCT090 BKN110 27.2 6.1 26% 26 76.89 1013.5
15 13:53 E 15 G 31 16.09 A Few Clouds FEW110 25.6 7.2 31% 26 76.96 1014.3
15 12:53 NW 19 G 31 16.09 Mostly Cloudy FEW060 BKN080 BKN100 22.8 7.8 38% 76.99 1016.3
15 11:53 SE 13 16.09 Overcast BKN085 OVC110 24.4 8.3 26.1 13.3 36% 25 77.01 1016.5 0.03
15 10:53 SW 9 16.09 A Few Clouds FEW110 23.9 8.9 39% 25 77.06 1017.0
15 09:53 SE 7 16.09 Fair CLR 21.1 10 49% 77.09 1017.5
15 08:53 E 7 16.09 A Few Clouds FEW110 17.8 12.2 70% 77.11 1017.9 0.03
15 07:53 NW 7 16.09 Partly Cloudy FEW100 SCT120 15.6 12.8 84% 77.11 1018.4
15 06:53 N 9 16.09 Mostly Cloudy FEW070 BKN100 13.3 12.2 93% 77.09 1017.3 0.03
15 05:53 N 17 16.09 Mostly Cloudy FEW055 FEW090 BKN110 13.9 11.1 23.3 13.3 83% 77.06 1016.2 0.15 0.15
15 04:53 N 7 16.09 Mostly Cloudy BKN110 15.6 7.2 58% 77.04 1015.3
15 03:53 E 11 16.09 Mostly Cloudy BKN120 16.1 7.8 58% 77.04 1015.4
15 02:53 N 17 16.09 Partly Cloudy SCT120 17.8 8.3 54% 76.96 1013.7
15 01:53 NW 19 G 46 16.09 Partly Cloudy SCT110 20.6 5.6 38% 77.01 1014.4
15 00:53 N 9 16.09 Fair CLR 15.6 7.8 60% 77.04 1015.9
14 23:53 NE 6 16.09 Fair CLR 14.4 7.2 30.6 14.4 62% 77.01 1016.0
14 22:53 Calm 16.09 Fair CLR 15.6 7.8 60% 77.04 1016.1
14 21:53 E 6 16.09 Fair CLR 17.8 7.8 52% 77.01 1016.4
14 20:53 N 20 G 35 16.09 A Few Clouds FEW110 20.6 7.8 44% 76.96 1015.9
14 19:53 NE 26 16.09 Fair CLR 21.1 8.3 44% 76.96 1016.8
14 18:53 N 44 G 70 16.09 Mostly Cloudy and Windy BKN110 26.7 6.1 27% 26 76.91 1015.0
14 17:53 W 30 G 43 16.09 Fair CLR 30.6 2.8 31.7 26.1 17% 29 76.89 1014.3
14 16:53 W 31 G 46 16.09 Fair CLR 31.1 3.9 18% 29 76.91 1014.5
14 15:53 W 13 16.09 A Few Clouds FEW110 30 3.9 19% 28 76.94 1015.4
14 14:53 W 13 16.09 A Few Clouds FEW100 30.6 3.9 18% 29 77.01 1016.0
14 13:53 W 19 G 30 16.09 Partly Cloudy SCT120 28.3 5.6 24% 27 77.06 1016.6
14 12:53 SW 11 16.09 Fair CLR 27.8 3.9 22% 27 77.09 1017.2
14 11:53 S 9 16.09 Mostly Cloudy BKN100 26.1 5.6 27.8 10 27% 26 77.14 1017.7
14 10:53 SW 7 16.09 Fair CLR 26.1 3.9 24% 26 77.17 1017.6
14 09:53 Calm 16.09 Fair CLR 22.2 3.3 29% 77.19 1018.0
14 08:53 E 6 16.09 Fair CLR 18.3 3.3 37% 77.22 1018.7
14 07:53 SW 6 16.09 Fair CLR 12.2 6.7 69% 77.22 1019.2
14 06:53 NE 9 16.09 Fair CLR 12.8 2.8 51% 77.19 1018.0
14 05:53 E 13 16.09 Fair CLR 10 1.7 15.6 7.8 57% 8 77.14 1018.6
14 04:53 E 11 16.09 Fair CLR 9.4 0 52% 8 77.11 1017.5
14 03:53 N 6 16.09 Fair CLR 10 -0.6 48% 77.09 1017.0
14 02:53 E 11 16.09 Fair CLR 10.6 0.6 50% 77.11 1017.2
14 01:53 E 9 16.09 Fair CLR 12.8 0.6 44% 77.14 1016.8
14 00:53 N 17 16.09 Fair CLR 13.3 1.7 46% 77.14 1017.5
13 23:53 NW 13 16.09 Fair CLR 15 0.6 30.6 15 38% 77.14 1017.0
13 22:53 Calm 16.09 Fair CLR 17.2 0 31% 77.14 1017.3
13 21:53 SW 6 16.09 Fair CLR 22.2 2.8 28% 77.14 1017.2
13 20:53 NW 13 16.09 Fair CLR 23.3 1.7 24% 77.09 1016.7
13 19:53 NW 11 16.09 Fair CLR 27.2 2.2 20% 26 77.06 1017.1
13 18:53 W 13 16.09 Fair CLR 30.6 0.6 14% 29 77.06 1016.6
13 17:53 NW 22 16.09 Fair CLR 27.2 1.7 33.3 27.2 19% 26 77.09 1018.0
13 16:53 NW 28 G 44 16.09 Fair CLR 31.1 -0.6 13% 29 77.09 1016.7
13 15:53 NW 28 G 43 16.09 Fair CLR 31.7 0 13% 30 77.06 1016.0
13 14:53 N 19 G 30 16.09 Fair CLR 31.1 -2.8 11% 29 77.06 1016.2
13 13:53 Vrbl 9 16.09 Fair CLR 32.2 -2.8 10% 30 77.09 1016.5
13 12:53 W 7 16.09 Fair CLR 29.4 -1.7 13% 28 77.11 1016.8
13 11:53 S 11 16.09 Fair CLR 29.4 -3.3 29.4 8.3 12% 28 77.14 1017.1
13 10:53 Vrbl 6 16.09 Fair CLR 26.1 0 18% 25 77.17 1017.6
13 09:53 SW 7 16.09 Fair CLR 21.1 6.1 38% 77.19 1018.8
13 08:53 Calm 16.09 Fair CLR 18.3 1.7 33% 77.22 1018.8
13 07:53 NW 6 16.09 Fair CLR 12.2 1.1 47% 77.22 1019.5
13 06:53 E 6 16.09 Fair CLR 11.1 -2.2 40% 77.17 1018.8
13 05:53 Calm 16.09 Fair CLR 8.9 -1.7 15 8.9 48% 77.14 1018.0
13 04:53 Calm 16.09 Fair CLR 10.6 -3.3 38% 77.11 1016.9
13 03:53 NE 17 16.09 Fair CLR 12.2 -3.3 34% 77.09 1016.1
13 02:53 NE 15 16.09 Fair CLR 11.7 -3.3 35% 77.06 1016.0
13 01:53 N 9 16.09 Fair CLR 11.1 -3.3 37% 77.06 1016.0
13 00:53 N 17 16.09 Fair CLR 15 -3.9 27% 77.06 1015.5
12 23:53 N 19 16.09 Fair CLR 14.4 -2.8 30.6 12.8 31% 77.06 1016.1
12 22:53 NW 11 16.09 Fair CLR 17.2 -4.4 23% 77.06 1015.9
12 21:53 N 19 16.09 Fair CLR 18.9 -0.6 27% 77.04 1015.9
12 20:53 N 13 16.09 Fair CLR 22.8 1.1 24% 76.99 1015.5
12 19:53 W 20 16.09 Fair CLR 25.6 3.9 25% 25 76.96 1015.6
12 18:53 NW 15 16.09 Fair CLR 27.8 1.1 18% 27 76.96 1015.9
12 17:53 NW 26 16.09 Fair CLR 30.6 -1.7 33.9 30.6 12% 29 76.94 1015.5
Date Time (mdt) Wind (kph) Vis. (km) Weather Sky Cond. Air Dwpt Max. Min. Relative Humidity Wind Chill (°C) Heat Index (°C) altimeter (cm) sea level (mb) 1 hr 3 hr 6 hr
6 hour
Temperature (ºC) Pressure Precipitation (cm)